OBJECT A, 44310

Orbit data source: Space-Track

You're viewing an Uncataloged Satellite

Recently launched and/or uncataloged satellites may have evolving metadata. Metadata may include but not limited to: Owner, Maufacturer, Bus, Motor, and Mission.

OBJECT A, 44310 is a Chinese satellite in LEO that was launched on Wed, 05 Jun 2019 UTC via a CHANG ZHENG 11 launch vehicle from the Yellow Sea Launch Area, China (YSLA). Unknown objects in Earth's orbit typically refer to objects detected orbiting the Earth but have not yet been identified or cataloged. These objects could be anything from previously untracked satellites, spent rocket stages, debris from satellite collisions, or even natural meteoroids temporarily captured by Earth's gravity.

Loading next visibility...
Identifier
44310, 2019-032A
Orbit
LEO
Country
Flag of CNCN / PRC
Related business
None
Manufacturer
Unknown
Mission
Operational Commercial Technology
Bus & Motor
Unknown
Mass
Unknown
Launch date (UTC)
2019-06-05 (7 years ago)
Launch vehicle
CHANG ZHENG 11
Launch site
Yellow Sea Launch Area, China (YSLA)
Object type
Unknown
Shape & HBR
Box, Unknown HBR
Radar Cross Section
1.500 m², Medium (>0.1 m² and < 1m²)

Expand to show TLE details & history
Last TLE update: 22 hours ago

TLE from 22 hours ago
0 OBJECT A
1 44310U 19032A   26172.52460390  .00009207  00000-0  33689-3 0  9994
2 44310  44.9737  33.0740 0010222 274.1946  85.7769 15.28369873387850
Epoch: 2026-06-21T12:35Z
TLE epoch observation values (Epoch: 2026-06-21T12:35:25.776Z)
Latitude
-0.00002°
Longitude
-65.50705°
Altitude
480.172 km
Speed
7.627 km/s
True Right ascension
02h 12m 17s
True Declination
0° 00' 00"
Sunlit
Object was in daylight at epoch
Visualization orbit readout
Latitude
Unknown
Longitude
Unknown
Altitude
Unknown
Speed
Unknown
Apparent Right ascension
Unknown
Apparent Declination
Unknown
Sunlit
N/A
Visualization observer readout
Local Sidereal Time
21:37:55
Azimuth
Unknown
Elevation
Unknown
Doppler factor
Unknown
Orbital elements
Apogee altitude
489.312 km
Perigee altitude
475.286 km
Semi-major axis
6,860.436 km
Eccentricity
0.00102
Inclination
44.9737°
RAAN
33.074°
Arg. of periapsis
274.1946°
True anomaly
85.89373°
Mean anomaly
85.7769°
Eccentric anomaly
85.83531°
Mean motion
3.81958 °/min
Orbital period
94.25 mins
BSTAR
0.00033689
Loading maneuver chart data...
Computing Atmospheric mass density...
Loading historical data...
Loading historical data...
Loading historical data...
Loading historical data...
Loading historical data...
Loading historical data...
Loading historical data...

Documentation

Showing up to 5 results
|